Terminal Aerodrome Forecast
Issued by NWS

Home | Current Version | Previous Version | Text Only | Print | Product List | Glossary On
Versions: 1 2 3 4 5 6 7 8 9 10 11 12
000
FTUS45 KRIW 270527
TAFWRL
TAF
KWRL 270527Z 2706/2806 VRB11G20KT P6SM -SHRA SCT080 BKN110
     FM270700 VRB06KT P6SM FEW120
     FM272100 01008KT P6SM VCSH SCT110 BKN200
     FM280200 VRB12G20KT P6SM VCTS SCT090CB BKN120=

USA.gov is the U.S. government's official web portal to all federal, state and local government web resources and services.